Location: Santiago
(33.4378°S, 70.6505°W)
Time: 08:48:32
(UTC+00:00)

ISS - Pass Details

Date: 14 October 2025
Orbit: 415 x 421 km, 51.6° (Epoch: 12 November)

Event Time Altitude Azimuth Distance (km) Brightness Sun altitude
Rises 22:35:08 0° 298° (WNW) 2,379 1.1 3.3°
Reaches altitude 10° 22:37:20 10° 289° (WNW) 1,517 0.4 2.8°
Maximum altitude 22:40:32 38° 219° (SW) 672 -2.1 2.2°
Drops below altitude 10° 22:43:46 10° 149° (SSE) 1,526 -1.1 1.5°
Enters shadow 22:50:14 -12° 134° (SE) 4,103 0.9 0.2°
